This is the latest recevied weather packets stored in our database for station/object N7SWJ. If no packets are shown the sender has not sent any weather packets the latest 10 day(s).
| Time | Temp. | Humidity | Pressure | Rain* | Wind** | Luminosity | Snow |
|---|---|---|---|---|---|---|---|
| 1777981636 | 2.78° C | 94% | 1016.3 hPa | 1.27 mm | - | 0 W/m² | - |
| 1777981332 | 2.78° C | 94% | 1016.3 hPa | 0 mm | - | 0 W/m² | - |
| 1777981029 | 2.78° C | 93% | 1016.2 hPa | 0 mm | - | 0 W/m² | - |
| 1777980726 | 2.78° C | 93% | 1016 hPa | 0 mm | - | 0 W/m² | - |
| 1777980422 | 2.78° C | 93% | 1015.7 hPa | 0 mm | - | 0 W/m² | - |
| 1777980120 | 2.78° C | 93% | 1015.9 hPa | 0 mm | - | 0 W/m² | - |
| 1777979819 | 2.78° C | 93% | 1015.5 hPa | 0 mm | - | 0 W/m² | - |
| 1777979515 | 2.78° C | 93% | 1015.7 hPa | 0 mm | - | 0 W/m² | - |
| 1777979212 | 2.78° C | 93% | 1015.7 hPa | 1.78 mm | - | 0 W/m² | - |
| 1777978909 | 2.78° C | 93% | 1015.5 hPa | 1.78 mm | - | 0 W/m² | - |
| 1777978606 | 2.78° C | 93% | 1015.5 hPa | 1.78 mm | - | 0 W/m² | - |
| 1777978301 | 2.78° C | 93% | 1015.4 hPa | 0 mm | - | 0 W/m² | - |
| 1777977999 | 2.78° C | 93% | 1015.2 hPa | 1.27 mm | - | 0 W/m² | - |
| 1777977696 | 2.78° C | 93% | 1015.5 hPa | 1.27 mm | - | 0 W/m² | - |
| 1777977392 | 3.33° C | 93% | 1015.5 hPa | 0 mm | - | 0 W/m² | - |
| 1777977090 | 3.33° C | 92% | 1015.3 hPa | 0 mm | - | 0 W/m² | - |
| 1777976787 | 3.33° C | 92% | 1015.2 hPa | 0 mm | - | 0 W/m² | - |
| 1777976485 | 3.89° C | 92% | 1015.2 hPa | 1.78 mm | - | 0 W/m² | - |
| 1777976183 | 3.89° C | 92% | 1015.3 hPa | 1.78 mm | - | 0 W/m² | - |
| 1777975879 | 3.89° C | 92% | 1015 hPa | 0 mm | - | 0 W/m² | - |
| 1777975576 | 4.44° C | 91% | 1015.2 hPa | 1.27 mm | - | 0 W/m² | - |
| 1777975273 | 4.44° C | 91% | 1015 hPa | 1.27 mm | - | 0 W/m² | - |
| 1777974969 | 5° C | 90% | 1015 hPa | 1.78 mm | - | 0 W/m² | - |
| 1777974666 | 5° C | 90% | 1015.1 hPa | 1.78 mm | - | 0 W/m² | - |
| 1777974362 | 5° C | 90% | 1014.8 hPa | 1.78 mm | - | 0 W/m² | - |
* Rain latest hour (hover to see other rain measurements)
** Current wind speed in m/s (hover to see current wind gust speed)